Temperature
17 18 18 18 18 18 17 16 16 17 18 18 17 17 17 18 18 19 19 19 19 19 19 19 19 19 18 18 18 17 17 17 16 16 16 15 15 15 14 14 14 13 13 13
18 18 17 18 18 18 18 17 17 17 17 17 17 17 17 17 18 18 19 19 19 19 19 19 19 19 18 18 18 17 17 17 16 16 16 15 15 15 14 14 14 13 13 13
16 16 18 18 18 18 17 17 17 17 17 16 16 17 17 17 18 18 19 19 19 19 19 19 19 19 19 18 18 17 17 17 16 16 16 15 15 15 14 14 14 14 13 13
14 17 18 17 17 17 17 16 16 16 16 16 16 17 18 18 18 19 19 19 19 19 19 19 19 18 18 18 18 17 17 17 17 16 16 15 15 15 14 14 14 14 13 13
13 15 16 17 17 17 17 16 16 15 15 16 17 17 17 18 18 18 19 19 19 19 19 19 19 18 18 18 17 17 17 17 17 16 16 16 15 15 15 14 14 14 13 13
13 16 16 17 17 17 17 16 16 15 15 16 16 15 15 18 18 18 18 18 18 18 18 18 18 18 18 18 17 17 17 17 16 16 16 16 15 15 15 14 14 14 13 13
13 14 15 15 16 17 16 16 16 16 16 16 15 15 17 17 18 18 18 18 18 18 18 18 18 17 17 17 17 17 17 17 16 16 16 15 15 15 15 14 14 14 13 13
12 13 15 15 15 15 15 16 16 16 16 16 16 17 17 17 17 17 17 17 17 17 17 17 17 17 17 17 17 17 16 16 16 16 16 15 15 15 15 14 14 14 13 13
12 13 14 15 15 16 16 16 16 16 16 16 16 16 16 16 17 17 17 17 17 17 17 16 16 16 16 16 16 16 16 16 16 16 15 15 15 15 15 14 14 14 13 13
12 13 14 15 15 15 15 15 15 15 15 16 16 16 16 16 16 16 16 16 16 16 16 16 16 16 16 15 15 15 16 16 16 15 15 15 15 15 14 14 14 14 13 13
11 12 14 15 15 15 15 15 15 15 15 15 15 15 15 15 15 15 15 15 15 15 15 15 15 15 15 15 15 15 15 15 15 15 15 15 15 15 14 14 14 13 13 13
11 13 12 13 14 14 14 14 14 14 14 14 14 14 14 14 14 14 14 14 14 14 14 14 14 14 14 14 14 14 14 15 15 14 14 14 14 14 14 14 13 13 13 13
14 14 14 13 14 13 13 14 14 14 14 14 14 14 14 14 14 14 13 13 13 14 14 14 14 14 14 14 14 14 14 14 14 14 14 14 13 13 14 13 13 13 13 13
13 13 12 13 13 13 13 13 13 13 13 13 13 13 13 13 13 13 13 13 13 13 13 13 13 13 13 13 13 13 13 13 13 14 13 13 13 13 13 13 13 13 13 13
12 12 12 12 12 12 12 12 12 12 13 13 13 13 13 13 13 12 12 12 12 13 13 13 13 13 13 13 13 13 13 13 13 13 13 13 13 12 12 12 13 13 13 12
12 12 12 12 12 12 12 12 12 12 12 12 12 12 12 12 12 12 12 12 12 12 12 12 12 13 12 12 12 12 12 12 12 12 12 12 12 12 12 12 12 12 12 12
10 10 11 11 11 11 11 11 11 11 11 11 11 11 11 11 11 11 11 11 11 11 12 12 12 12 12 12 12 12 12 12 12 12 12 12 12 11 11 11 11 11 12 12
10 10 10 10 10 10 10 11 11 11 11 11 11 11 11 11 11 11 11 11 11 11 11 11 11 11 11 11 11 11 11 11 11 11 11 11 11 11 11 11 11 11 11 11
10 10 10 10 10 10 10 10 10 10 10 10 10 10 10 10 10 10 10 10 10 10 11 11 11 11 11 11 11 11 11 11 11 11 11 11 11 11 11 11 11 11 11 11
10 10 10 9 9 9 9 9 9 9 9 9 9 9 9 10 10 9 9 10 10 10 10 10 10 10 10 10 10 10 10 10 10 10 10 10 10 10 10 10 10 10 10 10
9 9 9 9 9 9 9 9 9 9 9 9 9 9 9 9 9 9 9 9 9 10 10 10 10 10 10 10 10 10 10 10 10 10 10 10 10 10 10 10 10 10 9 10
8 8 8 8 8 8 8 8 8 8 8 8 8 8 8 8 9 9 9 9 9 9 9 9 9 10 10 9 9 9 9 9 9 9 9 9 9 9 9 9 9 9 9 9
8 8 8 8 8 8 8 8 8 8 8 8 8 8 8 8 8 8 8 8 8 8 8 9 9 9 9 9 9 9 9 9 9 9 9 9 9 9 9 9 9 9 9 9
7 7 7 7 7 7 7 8 8 8 8 8 8 7 7 8 8 8 8 8 8 8 8 9 9 9 9 9 9 9 9 9 9 8 8 9 9 9 9 8 8 8 8 8
7 7 7 7 7 7 7 7 7 7 7 7 7 7 7 7 7 7 7 7 7 8 8 8 8 8 8 8 8 8 8 8 8 8 8 8 8 8 8 8 8 8 8 8
7 7 7 7 7 7 7 7 7 7 7 7 7 7 7 7 7 7 7 7 7 7 7 7 8 8 8 8 8 8 8 8 8 8 8 8 8 8 8 8 7 7 7 7
6 6 6 6 6 6 6 6 6 6 6 6 7 7 7 7 6 6 6 6 7 7 7 7 7 7 7 7 7 7 7 7 7 7 7 7 7 7 7 7 7 7 7 7
Wind_Speed
3 3 2 3 4 3 4 6 6 6 4 6 6 5 5 4 3 4 3 2 1 3 3 3 3 3 4 5 5 5 6 6 7 6 5 4 3 3 2 2 1 1 1 1
2 2 2 3 4 2 3 3 4 2 4 4 3 3 4 5 4 4 4 3 3 3 2 3 4 4 4 4 5 5 6 7 6 5 5 5 4 3 2 2 1 1 0 1
3 5 3 3 3 1 2 1 3 3 4 3 3 4 4 3 3 3 4 4 3 3 4 5 5 4 5 5 4 5 6 5 5 5 5 5 5 4 3 3 2 1 1 0
0 3 2 4 2 2 4 2 1 1 3 2 2 2 2 2 2 4 4 4 4 4 4 4 3 3 3 2 4 5 5 5 4 5 6 5 5 5 4 3 3 2 1 1
3 1 4 4 2 1 2 1 2 2 4 4 3 4 4 4 3 4 4 3 4 4 3 3 2 2 2 2 3 4 5 5 6 6 6 6 7 6 5 4 3 3 2 2
4 3 4 4 4 3 3 1 4 2 3 4 4 4 6 7 6 5 5 4 4 3 3 2 2 2 3 3 3 5 6 6 6 5 7 8 8 6 4 5 5 4 3 2
4 4 6 5 6 2 3 4 4 2 1 1 1 4 6 6 5 5 4 4 3 3 2 2 1 2 3 3 6 6 5 4 5 5 6 7 6 5 5 5 5 4 3 2
4 3 6 3 3 2 4 3 2 2 2 2 4 5 5 5 5 5 5 5 4 3 4 3 1 2 3 5 5 3 3 4 5 5 5 5 6 5 5 6 6 5 4 2
6 6 3 2 0 1 1 2 3 3 4 3 4 5 5 5 6 5 5 5 4 3 4 3 2 3 4 5 2 2 2 3 4 4 4 5 6 7 5 6 6 5 5 4
3 4 3 4 2 2 3 3 4 4 4 3 3 4 5 5 5 5 5 5 4 4 4 5 4 4 4 3 2 2 3 3 3 3 4 4 5 6 6 7 7 6 6 5
4 5 5 3 3 4 5 4 4 4 4 3 3 4 4 5 5 5 5 4 4 3 4 6 5 5 3 2 2 3 3 3 3 3 4 4 5 5 7 7 8 8 7 7
6 6 4 7 6 4 4 5 5 5 5 4 3 4 4 5 5 4 5 5 5 5 5 6 5 5 4 3 3 3 3 3 3 3 3 3 4 2 4 6 8 10 10 9
7 6 6 6 5 4 5 6 6 6 6 5 4 4 4 5 5 4 5 6 6 6 6 6 5 5 4 3 3 4 5 5 4 4 4 4 5 5 3 2 3 6 9 10
6 4 5 5 6 6 6 6 6 5 5 5 5 4 4 4 5 5 6 7 7 7 7 6 6 6 5 4 4 5 5 6 5 5 5 5 6 6 6 5 4 3 4 8
6 5 6 6 6 5 5 4 4 5 5 5 4 4 4 5 6 7 8 7 6 6 7 6 7 7 5 4 5 5 5 4 5 5 5 5 5 5 5 6 5 4 2 3
5 3 3 3 5 5 5 4 4 6 6 6 5 6 6 6 6 7 7 6 6 7 8 7 8 8 5 5 5 5 5 7 5 4 4 5 5 5 6 6 6 6 6 5
2 3 3 4 5 6 5 5 6 6 6 7 7 7 6 6 6 7 7 7 7 8 8 8 9 8 6 6 6 5 5 6 7 5 5 6 6 6 7 7 7 7 7 7
6 7 6 6 5 5 6 6 6 7 7 7 7 5 5 6 7 8 8 7 7 8 8 8 8 7 6 6 6 5 5 6 5 5 5 6 6 6 7 7 7 7 5 6
4 4 5 5 5 5 5 6 7 7 7 7 6 7 7 7 7 8 7 6 7 8 9 8 10 8 7 8 7 5 6 6 6 6 5 6 6 6 7 7 7 7 6 6
3 3 4 5 5 5 5 6 7 7 7 6 7 7 7 8 8 7 7 7 8 8 8 9 8 7 7 8 8 5 6 7 7 7 6 6 7 7 7 7 7 7 7 7
4 4 4 5 6 6 6 7 7 8 8 7 7 8 9 9 8 7 7 9 9 9 8 11 8 7 6 7 8 6 6 6 7 7 7 7 7 7 7 7 7 7 7 7
4 4 5 6 6 7 7 7 7 8 8 8 8 8 8 9 9 8 8 9 9 11 8 7 7 9 9 9 6 6 7 7 7 6 7 7 7 8 8 8 8 7 7 7
5 6 6 7 7 8 8 8 8 8 8 9 9 9 9 9 7 7 10 8 7 11 9 8 11 14 13 8 6 7 7 7 7 7 7 7 7 8 8 8 8 8 7 7
6 6 7 7 6 6 8 9 9 8 9 9 9 10 9 8 8 8 8 12 13 14 9 11 15 15 12 6 6 7 7 7 7 7 7 6 6 7 7 7 7 7 7 8
7 7 7 6 7 7 8 9 9 9 9 8 9 9 8 7 8 8 8 9 13 13 9 12 15 14 8 6 6 7 7 7 7 6 6 6 6 6 6 6 7 7 7 7
7 7 7 7 7 7 7 7 7 7 7 8 8 8 7 7 8 8 7 8 10 12 9 7 8 9 7 6 6 7 7 7 8 6 6 6 6 6 6 6 7 7 7 7
7 6 6 6 7 6 6 6 7 8 8 8 9 8 8 7 7 8 8 8 8 8 7 7 7 6 6 6 6 6 6 6 6 6 6 6 6 6 7 7 7 6 7 7
Wind_Direction
235 258 254 255 263 207 190 188 190 229 238 289 314 319 327 342 8 26 12 347 255 230 227 223 226 230 225 220 206 194 190 201 211 208 199 195 196 203 208 208 215 228 254 320
324 321 296 281 289 238 213 195 211 246 273 295 313 6 16 19 29 20 352 331 299 263 241 231 228 231 233 228 209 192 201 213 209 193 188 191 195 196 195 203 208 168 215 303
294 313 3 314 298 196 153 145 165 199 254 306 3 8 4 2 14 344 320 317 310 282 250 241 234 220 222 227 199 191 207 213 203 194 194 197 191 183 194 202 187 186 220 247
64 31 236 252 295 148 135 70 23 316 312 311 297 313 342 6 354 332 326 317 301 293 279 256 237 225 212 182 184 195 207 210 203 197 199 192 183 191 199 193 188 195 201 218
122 167 286 301 330 163 153 11 359 12 360 355 347 10 357 351 334 304 300 294 280 274 270 265 235 207 171 176 186 201 217 220 212 202 198 190 193 199 197 186 187 188 186 187
126 163 235 253 307 301 126 331 335 5 353 351 37 14 307 323 324 322 325 322 320 323 335 316 264 169 164 193 201 223 227 225 217 206 201 199 200 197 192 185 189 184 185 193
160 209 258 275 303 35 120 256 305 316 318 348 224 239 275 310 322 325 325 326 335 345 336 307 263 174 191 208 229 237 231 217 207 207 209 203 194 189 182 181 179 182 185 200
155 190 248 318 46 113 222 259 286 300 309 294 281 293 311 327 336 341 339 337 339 339 326 322 238 187 221 238 247 239 215 212 211 208 208 195 182 184 180 176 178 188 188 205
190 210 242 317 217 262 226 310 305 296 301 300 306 310 318 324 329 330 329 327 325 319 317 316 273 218 235 261 261 224 213 219 219 208 206 188 182 183 179 179 184 192 192 206
254 266 283 311 311 337 339 306 295 294 304 308 296 302 310 317 320 321 323 323 321 324 318 308 292 265 252 256 228 208 218 230 218 205 206 196 191 188 187 189 192 195 198 206
270 285 313 304 301 313 320 320 316 314 302 283 281 294 298 305 307 311 313 313 313 304 296 296 297 286 273 235 199 214 225 224 220 212 206 201 200 203 202 206 198 197 204 199
238 243 234 265 280 292 298 302 304 308 307 299 275 277 288 293 293 300 305 306 305 298 295 299 301 292 280 244 210 205 224 229 221 215 213 204 198 220 233 224 219 213 207 200
241 252 243 267 285 287 281 288 294 289 277 281 280 271 276 282 283 286 294 298 292 286 285 288 288 286 277 249 227 218 223 228 226 215 209 211 204 200 217 251 225 217 210 207
258 262 277 278 279 284 284 287 290 288 277 270 275 282 283 285 290 286 283 281 283 287 286 281 276 275 271 247 233 234 230 227 227 220 212 213 214 211 205 203 213 234 222 210
269 250 250 270 285 291 292 299 303 294 287 283 283 284 284 284 284 284 287 289 292 292 290 285 278 278 276 251 236 234 229 227 227 224 218 217 216 212 210 208 209 212 212 211
275 288 284 285 289 296 302 301 294 288 285 280 279 277 276 277 283 289 292 293 289 285 284 281 277 276 271 254 242 237 232 238 233 220 216 216 214 212 212 210 209 207 206 202
247 277 287 291 287 287 284 278 274 278 282 280 276 276 279 285 292 292 289 285 277 275 275 273 274 277 268 253 242 236 232 233 232 228 219 218 217 218 216 211 212 215 216 204
223 232 241 248 258 274 286 287 285 285 281 280 286 286 281 279 279 281 284 288 291 291 284 277 275 274 264 257 246 236 227 225 223 225 224 224 225 221 217 215 214 215 218 210
245 250 260 264 263 265 273 280 282 284 286 288 285 278 273 272 275 280 285 289 289 289 289 284 285 278 265 259 260 237 229 228 227 228 228 230 229 223 218 216 216 214 206 200
273 271 277 283 282 277 278 282 283 285 284 281 279 279 280 280 282 281 277 271 265 265 273 281 280 270 262 258 258 239 233 231 229 228 226 226 226 225 219 216 214 211 208 205
284 288 291 292 291 286 278 277 280 282 283 279 273 270 273 279 281 279 277 280 279 275 277 282 278 268 261 262 255 238 233 232 231 229 227 227 228 224 219 215 213 212 210 206
280 286 288 289 288 289 286 280 275 277 280 280 276 274 277 281 282 280 271 266 274 282 282 270 268 270 271 267 243 235 233 233 231 231 229 228 226 221 218 215 213 212 210 204
269 272 278 281 280 283 288 284 278 277 276 275 275 275 273 271 269 269 278 275 274 281 282 267 271 276 274 258 238 233 234 234 232 230 228 229 228 222 217 215 212 207 204 199
272 274 275 278 281 283 285 283 280 278 273 273 271 268 268 274 276 264 261 276 284 285 278 272 273 274 271 250 237 234 234 235 235 235 231 231 230 224 217 212 209 204 199 192
270 273 277 280 280 277 276 281 286 284 281 278 276 273 268 257 260 272 274 275 281 286 282 280 278 277 266 248 239 237 236 237 238 234 228 229 228 223 217 211 206 199 194 191
268 270 270 265 264 268 272 275 277 279 280 281 281 279 276 272 267 270 273 274 274 280 280 275 271 267 256 248 244 241 239 243 245 240 232 231 227 221 215 209 202 197 191 187
273 273 275 279 275 266 264 265 268 272 271 270 276 279 278 278 277 276 276 276 276 273 272 271 265 256 250 248 248 246 243 240 237 234 231 230 224 217 211 205 200 191 183 178
Height
1497 1494 1495 1495 1494 1494 1498 1501 1507 1500 1497 1491 1487 1485 1483 1481 1479 1479 1479 1479 1480 1480 1481 1483 1484 1485 1486 1488 1489 1490 1491 1492 1493 1494 1495 1495 1495 1495 1495 1495 1494 1494 1493 1492
1497 1494 1494 1494 1491 1491 1493 1495 1497 1496 1495 1488 1486 1484 1483 1481 1480 1479 1479 1479 1479 1480 1480 1481 1482 1483 1484 1485 1486 1488 1489 1490 1491 1492 1492 1493 1493 1493 1493 1493 1493 1492 1492 1491
1505 1499 1494 1499 1492 1491 1492 1492 1493 1496 1493 1487 1486 1484 1484 1482 1481 1480 1480 1479 1479 1479 1479 1480 1480 1481 1482 1482 1484 1485 1486 1487 1488 1489 1489 1490 1491 1491 1491 1491 1491 1491 1491 1490
1508 1503 1507 1499 1488 1488 1490 1491 1491 1490 1488 1487 1486 1485 1483 1483 1482 1480 1480 1479 1478 1478 1478 1478 1479 1479 1480 1481 1481 1482 1483 1484 1484 1485 1486 1487 1488 1488 1489 1489 1489 1489 1489 1489
1512 1510 1506 1495 1488 1488 1490 1492 1489 1488 1487 1486 1484 1483 1483 1482 1482 1481 1480 1479 1478 1477 1477 1476 1476 1477 1478 1478 1478 1479 1479 1480 1481 1482 1483 1483 1484 1485 1486 1486 1487 1487 1487 1487
1511 1508 1508 1496 1486 1484 1487 1494 1489 1487 1487 1486 1485 1488 1485 1482 1481 1479 1478 1478 1477 1476 1475 1474 1474 1474 1475 1475 1475 1475 1476 1477 1478 1478 1479 1480 1481 1482 1483 1483 1484 1484 1485 1485
1510 1508 1502 1491 1486 1485 1497 1497 1489 1487 1486 1485 1486 1487 1484 1481 1480 1478 1477 1476 1475 1474 1473 1472 1472 1472 1472 1472 1472 1472 1473 1473 1474 1475 1475 1476 1477 1478 1479 1480 1481 1481 1482 1482
1509 1509 1504 1488 1487 1491 1493 1488 1487 1486 1485 1485 1483 1482 1481 1479 1478 1476 1475 1474 1473 1471 1470 1470 1469 1469 1468 1468 1469 1469 1469 1469 1470 1471 1471 1472 1473 1474 1475 1476 1477 1477 1478 1479
1498 1497 1490 1487 1487 1488 1487 1486 1486 1485 1484 1483 1482 1480 1479 1478 1476 1475 1473 1472 1471 1470 1468 1468 1467 1466 1465 1465 1465 1465 1465 1465 1466 1466 1467 1468 1469 1470 1471 1472 1472 1473 1474 1475
1493 1488 1487 1486 1486 1486 1486 1485 1484 1483 1482 1481 1480 1478 1477 1475 1474 1473 1471 1470 1468 1467 1466 1465 1464 1463 1462 1462 1461 1461 1461 1461 1462 1462 1463 1464 1465 1466 1466 1467 1468 1469 1470 1471
1491 1487 1485 1484 1484 1484 1483 1482 1481 1480 1480 1479 1477 1476 1475 1473 1472 1470 1469 1467 1466 1464 1463 1462 1460 1459 1459 1458 1458 1457 1457 1457 1458 1458 1459 1459 1460 1461 1462 1463 1464 1465 1466 1467
1488 1484 1484 1482 1482 1481 1480 1479 1478 1477 1476 1475 1474 1473 1472 1470 1469 1468 1466 1464 1463 1461 1460 1458 1457 1456 1455 1454 1453 1453 1453 1453 1453 1453 1454 1454 1455 1456 1457 1459 1460 1461 1462 1463
1480 1480 1480 1479 1478 1478 1477 1476 1475 1474 1473 1471 1471 1470 1469 1467 1466 1464 1463 1461 1459 1458 1456 1454 1453 1452 1451 1450 1449 1449 1448 1448 1448 1448 1449 1450 1450 1451 1451 1453 1454 1455 1456 1458
1477 1477 1475 1475 1474 1474 1473 1472 1471 1470 1469 1468 1467 1466 1465 1464 1462 1461 1459 1457 1456 1454 1452 1450 1449 1447 1446 1445 1444 1444 1444 1444 1444 1443 1444 1444 1445 1446 1447 1447 1448 1449 1451 1453
1473 1472 1472 1471 1470 1470 1469 1468 1467 1466 1465 1464 1463 1462 1461 1459 1458 1456 1455 1453 1451 1449 1447 1446 1444 1442 1441 1440 1439 1439 1438 1438 1438 1438 1439 1439 1440 1440 1441 1442 1443 1444 1446 1447
1468 1468 1468 1467 1466 1466 1465 1464 1463 1462 1460 1459 1458 1457 1456 1455 1453 1452 1450 1449 1446 1444 1442 1440 1439 1437 1436 1435 1434 1433 1433 1433 1433 1433 1433 1434 1434 1435 1435 1436 1437 1438 1439 1441
1465 1464 1463 1463 1462 1462 1461 1460 1459 1458 1456 1455 1454 1453 1452 1450 1448 1447 1445 1444 1442 1440 1438 1435 1433 1432 1431 1429 1428 1427 1427 1426 1426 1427 1427 1427 1428 1429 1430 1430 1431 1432 1434 1436
1460 1460 1460 1460 1459 1458 1457 1456 1455 1454 1452 1451 1449 1448 1446 1445 1443 1441 1440 1438 1436 1434 1432 1430 1429 1427 1425 1424 1423 1422 1421 1420 1420 1420 1420 1421 1422 1423 1424 1424 1425 1426 1428 1430
1456 1456 1456 1456 1455 1454 1453 1452 1451 1449 1448 1446 1444 1442 1441 1439 1438 1436 1434 1432 1430 1428 1426 1424 1423 1421 1419 1418 1417 1416 1415 1414 1414 1414 1414 1415 1416 1416 1417 1418 1419 1420 1422 1423
1453 1452 1452 1451 1450 1450 1448 1447 1446 1444 1442 1441 1439 1437 1435 1433 1432 1430 1428 1426 1424 1423 1421 1419 1417 1415 1413 1412 1411 1409 1408 1408 1407 1407 1408 1408 1409 1409 1410 1411 1413 1414 1415 1417
1449 1449 1448 1447 1446 1445 1444 1442 1441 1439 1437 1435 1433 1431 1429 1427 1426 1424 1421 1419 1417 1416 1414 1413 1410 1409 1407 1406 1404 1403 1402 1401 1401 1400 1401 1401 1402 1403 1403 1405 1406 1407 1409 1411
1446 1445 1444 1443 1442 1440 1439 1437 1435 1433 1432 1430 1428 1426 1423 1421 1419 1417 1415 1413 1411 1409 1407 1405 1404 1402 1401 1399 1398 1397 1396 1394 1394 1393 1394 1394 1395 1396 1397 1398 1399 1401 1403 1404
1442 1441 1440 1439 1437 1435 1433 1432 1430 1428 1426 1424 1422 1420 1417 1415 1413 1411 1408 1406 1404 1402 1400 1398 1397 1395 1394 1392 1391 1390 1389 1388 1387 1387 1387 1387 1388 1389 1390 1391 1392 1394 1396 1398
1438 1436 1435 1433 1432 1430 1428 1426 1424 1422 1420 1418 1416 1414 1411 1409 1406 1404 1402 1399 1397 1395 1392 1390 1389 1388 1387 1385 1384 1383 1382 1381 1380 1380 1380 1381 1381 1382 1383 1385 1386 1388 1390 1392
1432 1431 1429 1428 1426 1424 1422 1420 1418 1415 1413 1411 1409 1407 1405 1402 1400 1397 1395 1392 1390 1387 1385 1383 1381 1380 1379 1377 1376 1376 1375 1374 1374 1374 1374 1374 1375 1376 1377 1379 1380 1382 1384 1386
1426 1425 1423 1422 1420 1418 1416 1414 1411 1409 1407 1404 1402 1400 1398 1396 1393 1390 1388 1385 1383 1380 1378 1376 1374 1373 1371 1370 1370 1369 1368 1368 1368 1368 1368 1369 1369 1370 1371 1373 1375 1377 1379 1381
1420 1419 1417 1415 1414 1412 1410 1408 1405 1403 1400 1398 1395 1393 1391 1388 1386 1383 1381 1378 1376 1373 1371 1369 1368 1366 1365 1364 1363 1363 1362 1362 1362 1362 1362 1363 1363 1365 1366 1368 1370 1372 1374 1377